Flag for France Weather past 2 weeks in Toulon, France

Now
68 °F

Clear.


Feels Like: 68 °F
Forecast: 64 / 89 °F
Wind: 3 mph from Northeast

Location: Hyeres Airport

Current Time: Jul 5, 2015 at 5:18:43 AM

Latest Report: Jul 5, 2015 at 4:30 AM


Visibility: 10 mi

Pressure: 30.07 "Hg

Humidity: 78%

Dew point: 61 °F

Location of ToulonLocation

Historic Weather in Toulon — Graph

°F

Toulon temperature yesterday

Maximum temperature yesterday: 86 °F (at 3:30 PM)
Minimum temperature yesterday: 70 °F (at 3:30 AM)
Average temperature yesterday: 79 °F

Past Weeks' High & Low Weather Summary

 TemperatureHumidityPressure
High88 °F (Jun 20, 5:30 PM)100% (Jun 30, 4:00 AM)30.21 "Hg (Jun 30, 4:00 AM)
Low57 °F (Jun 26, 5:00 AM)15% (Jun 23, 10:00 PM)29.74 "Hg (Jun 23, 4:00 PM)
Average75 °F66%30.04 "Hg
* Reported Jun 20 4:00 AM — Jul 5 4:00 AM, Toulon, Weather by CustomWeather, © 2015

Note: Actual official high and low records may vary slightly from our data, if they occured in-between our weather recording intervals... More about our weather records

Advertising

Toulon weather history for previous 24 hours

 ConditionsComfort  
Time TempWeatherWind HumidityBarometerVisibility
4:00 AM
Sun, Jul 5
68 °FClear.2 mph78%30.07 "Hg10 mi
3:30 AM70 °FClear.6 mph73%30.07 "Hg10 mi
3:00 AM73 °FClear.2 mph61%30.07 "Hg10 mi
2:30 AM79 °FClear.5 mph48%30.07 "Hg10 mi
2:00 AM81 °FPassing clouds.5 mph45%30.07 "HgN/A
1:30 AM75 °FClear.5 mph61%30.09 "Hg10 mi
1:00 AM75 °FClear.7 mph61%30.09 "Hg10 mi
12:30 AM75 °FClear.6 mph65%30.09 "Hg10 mi
12:00 AM77 °FPassing clouds.5 mph57%30.09 "HgN/A
11:30 PM
Sat, Jul 4
77 °FClear.8 mph57%30.09 "Hg10 mi
11:00 PM79 °FClear.No wind51%30.09 "Hg10 mi
10:30 PM79 °FClear.5 mph54%30.09 "Hg10 mi
10:00 PM82 °FPassing clouds.3 mph40%30.09 "HgN/A
9:30 PM82 °FPassing clouds.5 mph37%30.09 "HgN/A
9:00 PM84 °FPassing clouds.5 mph37%30.09 "HgN/A
8:30 PM84 °FSunny.3 mph45%30.09 "Hg10 mi
8:00 PM82 °FPassing clouds.7 mph58%30.09 "HgN/A
7:30 PM82 °FSunny.13 mph66%30.09 "Hg10 mi
7:00 PM84 °FSunny.14 mph45%30.09 "Hg10 mi
6:30 PM84 °FSunny.14 mph48%30.09 "Hg10 mi
6:00 PM84 °FSunny.14 mph58%30.09 "Hg10 mi
5:30 PM84 °FSunny.14 mph58%30.12 "Hg10 mi
5:00 PM84 °FSunny.13 mph58%30.12 "Hg10 mi
4:30 PM86 °FSunny.12 mph55%30.12 "Hg10 mi
4:00 PM84 °FSunny.15 mph58%30.15 "Hg10 mi
3:30 PM86 °FSunny.14 mph46%30.15 "Hg10 mi
3:00 PM84 °FSunny.14 mph58%30.15 "Hg10 mi
2:30 PM84 °FSunny.13 mph70%30.15 "Hg10 mi
2:00 PM82 °FSunny.12 mph70%30.15 "Hg10 mi
1:30 PM82 °FSunny.13 mph70%30.18 "Hg10 mi
1:00 PM82 °FSunny.13 mph74%30.18 "Hg10 mi
12:30 PM82 °FSunny.12 mph70%30.18 "Hg10 mi
12:00 PM84 °FSunny.10 mph62%30.18 "Hg10 mi
11:30 AM84 °FPassing clouds.8 mph62%30.18 "HgN/A
11:00 AM84 °FPassing clouds.6 mph62%30.18 "HgN/A
10:30 AM84 °FPassing clouds.6 mph58%30.18 "HgN/A
10:00 AM84 °FSunny.3 mph55%30.18 "Hg10 mi
9:30 AM84 °FPassing clouds.3 mph55%30.18 "HgN/A
9:00 AM81 °FSunny.9 mph62%30.18 "Hg10 mi
8:30 AM79 °FPassing clouds.6 mph70%30.18 "HgN/A
8:00 AM77 °FSunny.2 mph69%30.15 "Hg10 mi
7:30 AM73 °FSunny.3 mph78%30.18 "Hg10 mi
7:00 AM70 °FClear.2 mph88%30.18 "Hg10 mi
6:30 AM70 °FClear.2 mph83%30.18 "Hg10 mi
6:00 AM70 °FClear.2 mph83%30.18 "Hg10 mi
5:30 AM70 °FClear.2 mph88%30.18 "Hg10 mi
5:00 AM70 °FPassing clouds.6 mph88%30.18 "HgN/A
Weather by CustomWeather, © 2015

See weather overviewHow to use our weather pages